Find Starlink 30708

NORAD ID: 57944 Int'l Des: 2023-148 Owner: SPXS Country: US Constellation: starlink operational
LEOCIRCULAR

Current View

Loading 3D Globe...

About Starlink 30708

Starlink 30708 (NORAD 57944) is a starlink constellation satellite (v2 mini) launched Sep 25, 2023 by SPXS of US. It operates in LEO, CIRCULAR orbit with a mass of 730.00 kg.

Upcoming Passes

Passes for default location (London). Set your location on the main map for personalized predictions.

Altitude History

Loading altitude history...

Two-Line Element Set

1 57944U 23148K 26252.25007982 -.00000043 00000-0 98765-5 0 9995
2 57944 53.1597 248.3058 0001210 85.7207 274.3934 15.34390008166574
Epoch: Sep 9, 2026 • Age: 7 hours

Current Status

Altitude 469.2 km
Apogee / Perigee N/A
Velocity 7.63 km/s
Sub-Earth Point -21.56°S, 101.87°W
Launch Date Sep 25, 2023
Age 2.9 years
Type internet

Technical Details

Classification Payload
Mass 730.00 kg
Dry Mass 700.00 kg
Total Mass 730.00 kg
Length 0.30 m
Diameter 4.10 m
Span 29.00 m
Shape Box + pan
Manufacturer SPXS
Bus Type Starlink V2M
Phase Status In Orbit
Owner/State SPXS/US

Most Searched